,,PA_Meas_PMT16A,,PR_Meas_QMR101_102,,RH_Meas_QMH101,,SR_Meas_QMS101,,TA_Meas_QMH101,,GenWind,,GenWind,
time,status,PA,status,PR,status,RH,status,SR,status,TA,status,DirAvg,status,SpdAvg,
2012-12-16, 00:00:04,VALID,918.434,VALID,0,VALID,97.6026,VALID,0,VALID,19.4898,VALID,290,VALID,0,
2012-12-16, 00:01:04,VALID,918.419,VALID,0,VALID,97.6026,VALID,0,VALID,19.5093,VALID,290,VALID,0,
2012-12-16, 00:02:04,VALID,918.396,VALID,0,VALID,97.6178,VALID,0.107441,VALID,19.4688,VALID,290,VALID,0,
2012-12-16, 00:03:04,VALID,918.371,VALID,0,VALID,97.6255,VALID,0,VALID,19.5093,VALID,290,VALID,0,
2012-12-16, 00:04:04,VALID,918.356,VALID,0,VALID,97.6102,VALID,0.107441,VALID,19.4898,VALID,290,VALID,0,
2012-12-16, 00:05:04,VALID,918.352,VALID,0,VALID,97.6255,VALID,0,VALID,19.5093,VALID,290,VALID,0,
2012-12-16, 00:06:04,VALID,918.349,VALID,0,VALID,97.6331,VALID,0,VALID,19.5288,VALID,290,VALID,0,
2012-12-16, 00:07:04,VALID,918.366,VALID,0,VALID,97.6102,VALID,0,VALID,19.5483,VALID,290,VALID,0,
2012-12-16, 00:08:04,VALID,918.336,VALID,0,VALID,97.6178,VALID,0,VALID,19.5678,VALID,290,VALID,0,
2012-12-16, 00:09:04,VALID,918.343,VALID,0,VALID,97.6102,VALID,0,VALID,19.5288,VALID,349,VALID,0,
2012-12-16, 00:10:04,VALID,918.347,VALID,0,VALID,97.6102,VALID,0.107441,VALID,19.4703,VALID,349,VALID,0,
2012-12-16, 00:11:04,VALID,918.325,VALID,0,VALID,97.6331,VALID,0,VALID,19.4313,VALID,349,VALID,0,
2012-12-16, 00:12:04,VALID,918.313,VALID,0,VALID,97.6407,VALID,0,VALID,19.4118,VALID,349,VALID,0,
2012-12-16, 00:13:04,VALID,918.263,VALID,0,VALID,97.6331,VALID,0.107441,VALID,19.4118,VALID,349,VALID,0,
2012-12-16, 00:14:04,VALID,918.292,VALID,0,VALID,97.6255,VALID,0,VALID,19.3923,VALID,349,VALID,0,
2012-12-16, 00:15:04,VALID,918.27,VALID,0,VALID,97.6483,VALID,0,VALID,19.3937,VALID,349,VALID,0,
2012-12-16, 00:16:04,VALID,918.241,VALID,0,VALID,97.656,VALID,0,VALID,19.3728,VALID,349,VALID,0,
2012-12-16, 00:17:04,VALID,918.238,VALID,0,VALID,97.6483,VALID,0,VALID,19.4118,VALID,349,VALID,0,
2012-12-16, 00:18:04,VALID,918.198,VALID,0,VALID,97.6255,VALID,0,VALID,19.3923,VALID,349,VALID,0,
2012-12-16, 00:19:04,VALID,918.216,VALID,0,VALID,97.6331,VALID,0,VALID,19.4118,VALID,349,VALID,0,
2012-12-16, 00:20:04,VALID,918.159,VALID,0,VALID,97.6331,VALID,0,VALID,19.4313,VALID,349,VALID,0,
2012-12-16, 00:21:04,VALID,918.144,VALID,0,VALID,97.6407,VALID,0,VALID,19.4327,VALID,349,VALID,0,
2012-12-16, 00:22:04,VALID,918.137,VALID,0,VALID,97.6483,VALID,0,VALID,19.4508,VALID,349,VALID,0,
2012-12-16, 00:23:04,VALID,918.114,VALID,0,VALID,97.6331,VALID,0,VALID,19.4508,VALID,349,VALID,0,
2012-12-16, 00:24:04,VALID,918.092,VALID,0,VALID,97.6407,VALID,0,VALID,19.4508,VALID,349,VALID,0,
2012-12-16, 00:25:04,VALID,918.078,VALID,0,VALID,97.6331,VALID,0,VALID,19.4313,VALID,349,VALID,0,
2012-12-16, 00:26:04,VALID,918.028,VALID,0,VALID,97.6102,VALID,0,VALID,19.4508,VALID,349,VALID,0,
2012-12-16, 00:27:04,VALID,918.051,VALID,0,VALID,97.6407,VALID,0,VALID,19.4703,VALID,349,VALID,0,
2012-12-16, 00:28:04,VALID,918.033,VALID,0,VALID,97.6255,VALID,0.107441,VALID,19.4703,VALID,349,VALID,0,
2012-12-16, 00:29:04,VALID,918.011,VALID,0,VALID,97.6483,VALID,0,VALID,19.4703,VALID,349,VALID,0,
2012-12-16, 00:30:04,VALID,917.974,VALID,0,VALID,97.6407,VALID,0,VALID,19.4898,VALID,349,VALID,0,
2012-12-16, 00:31:04,VALID,918.01,VALID,0,VALID,97.6407,VALID,0,VALID,19.5093,VALID,349,VALID,0,
2012-12-16, 00:32:04,VALID,917.973,VALID,0,VALID,97.6255,VALID,0,VALID,19.4898,VALID,349,VALID,0,
2012-12-16, 00:33:04,VALID,917.993,VALID,0,VALID,97.6331,VALID,0,VALID,19.5093,VALID,349,VALID,0,
2012-12-16, 00:34:04,VALID,918.024,VALID,0,VALID,97.6331,VALID,0,VALID,19.5093,VALID,349,VALID,0,
2012-12-16, 00:35:04,VALID,917.962,VALID,0,VALID,97.6255,VALID,0,VALID,19.5288,VALID,349,VALID,0,
2012-12-16, 00:36:04,VALID,917.988,VALID,0,VALID,97.6331,VALID,0,VALID,19.5288,VALID,349,VALID,0,
2012-12-16, 00:37:04,VALID,917.987,VALID,0,VALID,97.656,VALID,0,VALID,19.5093,VALID,349,VALID,0,
2012-12-16, 00:38:04,VALID,918.01,VALID,0,VALID,97.6331,VALID,0,VALID,19.4898,VALID,349,VALID,0,
2012-12-16, 00:39:04,VALID,918.036,VALID,0,VALID,97.6331,VALID,0,VALID,19.4298,VALID,349,VALID,0,
2012-12-16, 00:40:04,VALID,918.039,VALID,0,VALID,97.6407,VALID,0,VALID,19.4313,VALID,349,VALID,0,
2012-12-16, 00:41:04,VALID,918.04,VALID,0,VALID,97.6255,VALID,0,VALID,19.4313,VALID,349,VALID,0,
2012-12-16, 00:42:04,VALID,918.023,VALID,0,VALID,97.6483,VALID,0,VALID,19.3923,VALID,349,VALID,0,
2012-12-16, 00:43:04,VALID,918.046,VALID,0,VALID,97.6483,VALID,0,VALID,19.3728,VALID,349,VALID,0,
2012-12-16, 00:44:04,VALID,918.044,VALID,0,VALID,97.6407,VALID,0,VALID,19.3533,VALID,349,VALID,0,
2012-12-16, 00:45:04,VALID,918.025,VALID,0,VALID,97.656,VALID,0,VALID,19.3533,VALID,349,VALID,0,
2012-12-16, 00:46:04,VALID,918.067,VALID,0,VALID,97.6636,VALID,0,VALID,19.3547,VALID,349,VALID,0,
2012-12-16, 00:47:04,VALID,918.061,VALID,0,VALID,97.6636,VALID,0,VALID,19.3533,VALID,349,VALID,0,
2012-12-16, 00:48:04,VALID,918.07,VALID,0,VALID,97.6636,VALID,0,VALID,19.3533,VALID,349,VALID,0,
2012-12-16, 00:49:04,VALID,918.04,VALID,0,VALID,97.6636,VALID,0,VALID,19.3728,VALID,349,VALID,0,
2012-12-16, 00:50:04,VALID,918.01,VALID,0,VALID,97.656,VALID,0,VALID,19.3728,VALID,349,VALID,0,
2012-12-16, 00:51:04,VALID,918.019,VALID,0,VALID,97.6483,VALID,0,VALID,19.4118,VALID,349,VALID,0,
2012-12-16, 00:52:04,VALID,917.981,VALID,0,VALID,97.6636,VALID,0,VALID,19.4313,VALID,349,VALID,0,
2012-12-16, 00:53:04,VALID,917.965,VALID,0,VALID,97.656,VALID,0,VALID,19.5108,VALID,349,VALID,0,
2012-12-16, 00:54:04,VALID,917.931,VALID,0,VALID,97.6407,VALID,0,VALID,19.4898,VALID,349,VALID,0,
2012-12-16, 00:55:04,VALID,917.931,VALID,0,VALID,97.6483,VALID,0,VALID,19.4718,VALID,349,VALID,0,
2012-12-16, 00:56:04,VALID,917.922,VALID,0,VALID,97.6407,VALID,0,VALID,19.4508,VALID,349,VALID,0,
2012-12-16, 00:57:04,VALID,917.925,VALID,0,VALID,97.6407,VALID,0,VALID,19.4118,VALID,349,VALID,0,
2012-12-16, 00:58:04,VALID,917.916,VALID,0,VALID,97.6636,VALID,0,VALID,19.4118,VALID,349,VALID,0,
2012-12-16, 00:59:04,VALID,917.879,VALID,0,VALID,97.6483,VALID,0,VALID,19.4313,VALID,349,VALID,0,
2012-12-16, 01:00:04,VALID,917.871,VALID,0,VALID,97.6712,VALID,0,VALID,19.4313,VALID,349,VALID,0,
2012-12-16, 01:01:04,VALID,917.839,VALID,0,VALID,97.656,VALID,0,VALID,19.4523,VALID,349,VALID,0,
2012-12-16, 01:02:04,VALID,917.827,VALID,0,VALID,97.6407,VALID,0,VALID,19.4313,VALID,349,VALID,0,
2012-12-16, 01:03:04,VALID,917.807,VALID,0,VALID,97.6331,VALID,0,VALID,19.4313,VALID,349,VALID,0,
2012-12-16, 01:04:04,VALID,917.815,VALID,0,VALID,97.6483,VALID,0,VALID,19.4313,VALID,349,VALID,0,
2012-12-16, 01:05:04,VALID,917.792,VALID,0,VALID,97.6483,VALID,0.107441,VALID,19.4313,VALID,349,VALID,0,
2012-12-16, 01:06:04,VALID,917.812,VALID,0,VALID,97.6712,VALID,0,VALID,19.4523,VALID,349,VALID,0,
2012-12-16, 01:07:04,VALID,917.808,VALID,0,VALID,97.656,VALID,0,VALID,19.4313,VALID,349,VALID,0,
2012-12-16, 01:08:04,VALID,917.814,VALID,0,VALID,97.656,VALID,0,VALID,19.4313,VALID,349,VALID,0,
2012-12-16, 01:09:04,VALID,917.793,VALID,0,VALID,97.6483,VALID,0,VALID,19.4118,VALID,349,VALID,0,
2012-12-16, 01:10:04,VALID,917.812,VALID,0,VALID,97.6407,VALID,0,VALID,19.4508,VALID,349,VALID,0,
2012-12-16, 01:11:04,VALID,917.816,VALID,0,VALID,97.656,VALID,0,VALID,19.4508,VALID,349,VALID,0,
2012-12-16, 01:12:04,VALID,917.819,VALID,0,VALID,97.656,VALID,0,VALID,19.4508,VALID,349,VALID,0,
2012-12-16, 01:13:04,VALID,917.792,VALID,0,VALID,97.656,VALID,0,VALID,19.4718,VALID,349,VALID,0,
2012-12-16, 01:14:04,VALID,917.754,VALID,0,VALID,97.6636,VALID,0,VALID,19.4703,VALID,349,VALID,0,
2012-12-16, 01:15:04,VALID,917.747,VALID,0,VALID,97.6636,VALID,0,VALID,19.4508,VALID,349,VALID,0,
2012-12-16, 01:16:04,VALID,917.748,VALID,0,VALID,97.6788,VALID,0,VALID,19.4703,VALID,349,VALID,0,
2012-12-16, 01:17:04,VALID,917.742,VALID,0,VALID,97.6636,VALID,0.107441,VALID,19.4703,VALID,349,VALID,0,
2012-12-16, 01:18:04,VALID,917.722,VALID,0,VALID,97.6636,VALID,0,VALID,19.4703,VALID,349,VALID,0,
2012-12-16, 01:19:04,VALID,917.752,VALID,0,VALID,97.6636,VALID,0,VALID,19.4703,VALID,349,VALID,0,
2012-12-16, 01:20:04,VALID,917.719,VALID,0,VALID,97.6636,VALID,0,VALID,19.4898,VALID,349,VALID,0,
2012-12-16, 01:21:04,VALID,917.688,VALID,0,VALID,97.6636,VALID,0,VALID,19.4883,VALID,349,VALID,0,
2012-12-16, 01:22:04,VALID,917.708,VALID,0,VALID,97.6407,VALID,0,VALID,19.5483,VALID,349,VALID,0,
2012-12-16, 01:23:04,VALID,917.674,VALID,0,VALID,97.6788,VALID,0,VALID,19.5678,VALID,349,VALID,0,
2012-12-16, 01:24:04,VALID,917.658,VALID,0,VALID,97.656,VALID,0,VALID,19.5678,VALID,349,VALID,0,
2012-12-16, 01:25:04,VALID,917.648,VALID,0,VALID,97.6483,VALID,0.107441,VALID,19.5468,VALID,349,VALID,0,
2012-12-16, 01:26:04,VALID,917.662,VALID,0,VALID,97.656,VALID,0.107441,VALID,19.5483,VALID,349,VALID,0,
2012-12-16, 01:27:04,VALID,917.624,VALID,0,VALID,97.6712,VALID,0,VALID,19.5093,VALID,349,VALID,0,
2012-12-16, 01:28:04,VALID,917.614,VALID,0,VALID,97.6636,VALID,0.107441,VALID,19.4883,VALID,349,VALID,0,
2012-12-16, 01:29:04,VALID,917.579,VALID,0,VALID,97.6636,VALID,0.107441,VALID,19.4703,VALID,349,VALID,0,
2012-12-16, 01:30:04,VALID,917.625,VALID,0,VALID,97.656,VALID,0,VALID,19.4703,VALID,349,VALID,0,
2012-12-16, 01:31:04,VALID,917.589,VALID,0,VALID,97.7017,VALID,0,VALID,19.4703,VALID,349,VALID,0,
2012-12-16, 01:32:04,VALID,917.581,VALID,0,VALID,97.6788,VALID,0.107441,VALID,19.4703,VALID,349,VALID,0,
2012-12-16, 01:33:04,VALID,917.589,VALID,0,VALID,97.6483,VALID,0,VALID,19.4703,VALID,349,VALID,0,
2012-12-16, 01:34:04,VALID,917.57,VALID,0,VALID,97.6712,VALID,0,VALID,19.4508,VALID,349,VALID,0,
2012-12-16, 01:35:04,VALID,917.569,VALID,0,VALID,97.6788,VALID,0,VALID,19.4493,VALID,349,VALID,0,
2012-12-16, 01:36:04,VALID,917.58,VALID,0,VALID,97.6483,VALID,0.107441,VALID,19.4508,VALID,349,VALID,0,
2012-12-16, 01:37:04,VALID,917.595,VALID,0,VALID,97.6712,VALID,0.107441,VALID,19.4703,VALID,349,VALID,0,
2012-12-16, 01:38:04,VALID,917.612,VALID,0,VALID,97.6636,VALID,0,VALID,19.4688,VALID,349,VALID,0,
2012-12-16, 01:39:04,VALID,917.58,VALID,0,VALID,97.6712,VALID,0,VALID,19.4898,VALID,349,VALID,0,
2012-12-16, 01:40:04,VALID,917.587,VALID,0,VALID,97.6865,VALID,0.107441,VALID,19.5093,VALID,349,VALID,0,
2012-12-16, 01:41:04,VALID,917.6,VALID,0,VALID,97.656,VALID,0,VALID,19.4883,VALID,349,VALID,0,
2012-12-16, 01:42:04,VALID,917.61,VALID,0,VALID,97.6865,VALID,0,VALID,19.5078,VALID,349,VALID,0,
2012-12-16, 01:43:04,VALID,917.607,VALID,0,VALID,97.6712,VALID,0,VALID,19.5483,VALID,349,VALID,0,
2012-12-16, 01:44:04,VALID,917.595,VALID,0,VALID,97.6712,VALID,0.107441,VALID,19.5288,VALID,349,VALID,0,
2012-12-16, 01:45:04,VALID,917.577,VALID,0,VALID,97.6636,VALID,0,VALID,19.4883,VALID,349,VALID,0,
2012-12-16, 01:46:04,VALID,917.575,VALID,0,VALID,97.6636,VALID,0,VALID,19.5093,VALID,349,VALID,0,
2012-12-16, 01:47:04,VALID,917.58,VALID,0,VALID,97.6712,VALID,0,VALID,19.5288,VALID,349,VALID,0,
2012-12-16, 01:48:04,VALID,917.574,VALID,0,VALID,97.6865,VALID,0,VALID,19.5093,VALID,349,VALID,0,
2012-12-16, 01:49:04,VALID,917.567,VALID,0,VALID,97.656,VALID,0.107441,VALID,19.5078,VALID,349,VALID,0,
2012-12-16, 01:50:04,VALID,917.581,VALID,0,VALID,97.6712,VALID,0,VALID,19.5288,VALID,349,VALID,0,
2012-12-16, 01:51:04,VALID,917.544,VALID,0,VALID,97.656,VALID,0.107441,VALID,19.5483,VALID,349,VALID,0,
2012-12-16, 01:52:04,VALID,917.561,VALID,0,VALID,97.6636,VALID,0.107441,VALID,19.5678,VALID,349,VALID,0,
2012-12-16, 01:53:04,VALID,917.556,VALID,0,VALID,97.6636,VALID,0.107441,VALID,19.5483,VALID,349,VALID,0,
2012-12-16, 01:54:04,VALID,917.557,VALID,0,VALID,97.6788,VALID,0.107441,VALID,19.5078,VALID,349,VALID,0,
2012-12-16, 01:55:04,VALID,917.545,VALID,0,VALID,97.6865,VALID,0,VALID,19.4688,VALID,349,VALID,0,
2012-12-16, 01:56:04,VALID,917.547,VALID,0,VALID,97.6788,VALID,0.107441,VALID,19.4688,VALID,349,VALID,0,
2012-12-16, 01:57:04,VALID,917.545,VALID,0,VALID,97.6712,VALID,0.107441,VALID,19.4688,VALID,349,VALID,0,
2012-12-16, 01:58:04,VALID,917.513,VALID,0,VALID,97.6941,VALID,0,VALID,19.4703,VALID,349,VALID,0,
2012-12-16, 01:59:04,VALID,917.522,VALID,0,VALID,97.6712,VALID,0.107441,VALID,19.4898,VALID,349,VALID,0,
2012-12-16, 02:00:04,VALID,917.496,VALID,0,VALID,97.6712,VALID,0.107441,VALID,19.4703,VALID,349,VALID,0,
2012-12-16, 02:01:04,VALID,917.51,VALID,0,VALID,97.6788,VALID,0,VALID,19.4508,VALID,349,VALID,0,
2012-12-16, 02:02:04,VALID,917.474,VALID,0,VALID,97.6865,VALID,0.107441,VALID,19.4298,VALID,349,VALID,0,
2012-12-16, 02:03:04,VALID,917.469,VALID,0,VALID,97.6865,VALID,0,VALID,19.4313,VALID,349,VALID,0,
2012-12-16, 02:04:04,VALID,917.444,VALID,0,VALID,97.6865,VALID,0,VALID,19.4313,VALID,349,VALID,0,
2012-12-16, 02:05:04,VALID,917.488,VALID,0,VALID,97.6636,VALID,0,VALID,19.4298,VALID,349,VALID,0,
2012-12-16, 02:06:04,VALID,917.454,VALID,0,VALID,97.6712,VALID,0,VALID,19.4703,VALID,349,VALID,0,
2012-12-16, 02:07:04,VALID,917.432,VALID,0,VALID,97.6636,VALID,0.107441,VALID,19.4688,VALID,349,VALID,0,
2012-12-16, 02:08:04,VALID,917.452,VALID,0,VALID,97.6788,VALID,0,VALID,19.5093,VALID,349,VALID,0,
2012-12-16, 02:09:04,VALID,917.422,VALID,0,VALID,97.6788,VALID,0,VALID,19.5093,VALID,349,VALID,0,
2012-12-16, 02:10:04,VALID,917.346,VALID,0,VALID,97.6865,VALID,0.107441,VALID,19.5093,VALID,349,VALID,0,
2012-12-16, 02:11:04,VALID,917.38,VALID,0,VALID,97.6712,VALID,0,VALID,19.5483,VALID,349,VALID,0,
2012-12-16, 02:12:04,VALID,917.352,VALID,0,VALID,97.6712,VALID,0,VALID,19.5483,VALID,349,VALID,0,
2012-12-16, 02:13:04,VALID,917.312,VALID,0,VALID,97.6865,VALID,0,VALID,19.5873,VALID,349,VALID,0,
2012-12-16, 02:14:04,VALID,917.293,VALID,0,VALID,97.6636,VALID,0,VALID,19.5873,VALID,349,VALID,0,
2012-12-16, 02:15:04,VALID,917.281,VALID,0,VALID,97.6636,VALID,0,VALID,19.5873,VALID,349,VALID,0,
2012-12-16, 02:16:04,VALID,917.251,VALID,0,VALID,97.656,VALID,0,VALID,19.5873,VALID,349,VALID,0,
2012-12-16, 02:17:04,VALID,917.233,VALID,0,VALID,97.6712,VALID,0,VALID,19.6263,VALID,349,VALID,0,
2012-12-16, 02:18:04,VALID,917.231,VALID,0,VALID,97.656,VALID,0,VALID,19.6458,VALID,349,VALID,0,
2012-12-16, 02:19:04,VALID,917.202,VALID,0,VALID,97.6712,VALID,0,VALID,19.6473,VALID,349,VALID,0,
2012-12-16, 02:20:04,VALID,917.198,VALID,0,VALID,97.656,VALID,0,VALID,19.6068,VALID,349,VALID,0,
2012-12-16, 02:21:04,VALID,917.185,VALID,0,VALID,97.6636,VALID,0,VALID,19.5858,VALID,349,VALID,0,
2012-12-16, 02:22:04,VALID,917.173,VALID,0,VALID,97.6636,VALID,0,VALID,19.6068,VALID,349,VALID,0,
2012-12-16, 02:23:04,VALID,917.165,VALID,0,VALID,97.656,VALID,0,VALID,19.5663,VALID,349,VALID,0,
2012-12-16, 02:24:04,VALID,917.152,VALID,0,VALID,97.6712,VALID,0,VALID,19.5678,VALID,349,VALID,0,
2012-12-16, 02:25:04,VALID,917.138,VALID,0,VALID,97.6788,VALID,0,VALID,19.5468,VALID,349,VALID,0,
2012-12-16, 02:26:04,VALID,917.143,VALID,0,VALID,97.6636,VALID,0.107441,VALID,19.5483,VALID,349,VALID,0,
2012-12-16, 02:27:04,VALID,917.129,VALID,0,VALID,97.6636,VALID,0,VALID,19.5678,VALID,349,VALID,0,
2012-12-16, 02:28:04,VALID,917.127,VALID,0,VALID,97.6788,VALID,0,VALID,19.5288,VALID,349,VALID,0,
2012-12-16, 02:29:04,VALID,917.123,VALID,0,VALID,97.6712,VALID,0,VALID,19.5873,VALID,349,VALID,0,
2012-12-16, 02:30:04,VALID,917.123,VALID,0,VALID,97.6636,VALID,0,VALID,19.5873,VALID,349,VALID,0,
2012-12-16, 02:31:04,VALID,917.077,VALID,0,VALID,97.6636,VALID,0,VALID,19.6068,VALID,349,VALID,0,
2012-12-16, 02:32:04,VALID,917.095,VALID,0,VALID,97.6788,VALID,0,VALID,19.6263,VALID,349,VALID,0,
2012-12-16, 02:33:04,VALID,917.053,VALID,0,VALID,97.6788,VALID,0,VALID,19.6263,VALID,349,VALID,0,
2012-12-16, 02:34:04,VALID,917.052,VALID,0,VALID,97.656,VALID,0,VALID,19.6068,VALID,15,VALID,0,
2012-12-16, 02:35:04,VALID,917.043,VALID,0,VALID,97.6712,VALID,0,VALID,19.6068,VALID,21,VALID,0,
2012-12-16, 02:36:04,VALID,917.042,VALID,0,VALID,97.6636,VALID,0,VALID,19.5873,VALID,17,VALID,0,
2012-12-16, 02:37:04,VALID,917.051,VALID,0,VALID,97.6788,VALID,0.107441,VALID,19.5678,VALID,17,VALID,0,
2012-12-16, 02:38:04,VALID,917.028,VALID,0,VALID,97.6712,VALID,0,VALID,19.5678,VALID,18,VALID,0,
2012-12-16, 02:39:04,VALID,917.026,VALID,0,VALID,97.6788,VALID,0.107441,VALID,19.5678,VALID,17,VALID,0,
2012-12-16, 02:40:04,VALID,917.027,VALID,0,VALID,97.6636,VALID,0,VALID,19.5678,VALID,17,VALID,0,
2012-12-16, 02:41:04,VALID,917.036,VALID,0,VALID,97.6712,VALID,0.107441,VALID,19.5873,VALID,17,VALID,0,
2012-12-16, 02:42:04,VALID,917.029,VALID,0,VALID,97.6712,VALID,0,VALID,19.5678,VALID,17,VALID,0,
2012-12-16, 02:43:04,VALID,917.015,VALID,0,VALID,97.6865,VALID,0,VALID,19.5288,VALID,16,VALID,0,
2012-12-16, 02:44:04,VALID,916.987,VALID,0,VALID,97.6788,VALID,0,VALID,19.5288,VALID,21,VALID,0,
2012-12-16, 02:45:04,VALID,917.015,VALID,0,VALID,97.6636,VALID,0,VALID,19.5288,VALID,19,VALID,0,
2012-12-16, 02:46:04,VALID,917.015,VALID,0,VALID,97.6712,VALID,0,VALID,19.5093,VALID,3,VALID,0,
2012-12-16, 02:47:04,VALID,917.015,VALID,0,VALID,97.6865,VALID,0,VALID,19.4898,VALID,3,VALID,0,
2012-12-16, 02:48:04,VALID,916.994,VALID,0,VALID,97.6788,VALID,0,VALID,19.4688,VALID,35,VALID,0,
2012-12-16, 02:49:04,VALID,917.016,VALID,0,VALID,97.6788,VALID,0,VALID,19.4898,VALID,17,VALID,0,
2012-12-16, 02:50:04,VALID,916.986,VALID,0,VALID,97.6865,VALID,0,VALID,19.4493,VALID,3,VALID,0,
2012-12-16, 02:51:04,VALID,917.013,VALID,0,VALID,97.7017,VALID,0,VALID,19.4118,VALID,347,VALID,0,
2012-12-16, 02:52:04,VALID,916.995,VALID,0,VALID,97.6865,VALID,0,VALID,19.3713,VALID,339,VALID,0,
2012-12-16, 02:53:04,VALID,916.97,VALID,0,VALID,97.6941,VALID,0,VALID,19.3923,VALID,357,VALID,0,
2012-12-16, 02:54:04,VALID,916.95,VALID,0,VALID,97.7017,VALID,0,VALID,19.3923,VALID,342,VALID,0,
2012-12-16, 02:55:04,VALID,916.965,VALID,0,VALID,97.7093,VALID,0,VALID,19.3728,VALID,344,VALID,0,
2012-12-16, 02:56:04,VALID,917.009,VALID,0,VALID,97.7169,VALID,0,VALID,19.3533,VALID,356,VALID,0,
2012-12-16, 02:57:04,VALID,916.977,VALID,0,VALID,97.6941,VALID,0.107441,VALID,19.3338,VALID,308,VALID,0,
2012-12-16, 02:58:04,VALID,916.949,VALID,0,VALID,97.7017,VALID,0.107441,VALID,19.3323,VALID,14,VALID,0,
2012-12-16, 02:59:04,VALID,916.984,VALID,0,VALID,97.7093,VALID,0,VALID,19.3533,VALID,14,VALID,0,
2012-12-16, 03:00:04,VALID,916.972,VALID,0,VALID,97.7017,VALID,0,VALID,19.3728,VALID,354,VALID,0,
2012-12-16, 03:01:04,VALID,916.943,VALID,0,VALID,97.7246,VALID,0,VALID,19.3533,VALID,350,VALID,0,
2012-12-16, 03:02:04,VALID,916.895,VALID,0,VALID,97.7093,VALID,0,VALID,19.3533,VALID,352,VALID,0,
2012-12-16, 03:03:04,VALID,916.933,VALID,0,VALID,97.7246,VALID,0,VALID,19.3338,VALID,22,VALID,0,
2012-12-16, 03:04:04,VALID,916.918,VALID,0,VALID,97.7017,VALID,0,VALID,19.3128,VALID,18,VALID,0,
2012-12-16, 03:05:04,VALID,916.881,VALID,0,VALID,97.7322,VALID,0,VALID,19.3128,VALID,34,VALID,0,
2012-12-16, 03:06:04,VALID,916.87,VALID,0,VALID,97.7169,VALID,0,VALID,19.3533,VALID,15,VALID,0,
2012-12-16, 03:07:04,VALID,916.878,VALID,0,VALID,97.7246,VALID,0,VALID,19.3338,VALID,16,VALID,0,
2012-12-16, 03:08:04,VALID,916.854,VALID,0,VALID,97.7093,VALID,0,VALID,19.3338,VALID,14,VALID,0,
2012-12-16, 03:09:04,VALID,916.854,VALID,0,VALID,97.7093,VALID,0,VALID,19.3533,VALID,22,VALID,0,
2012-12-16, 03:10:04,VALID,916.81,VALID,0,VALID,97.7017,VALID,0,VALID,19.3143,VALID,11,VALID,0,
2012-12-16, 03:11:04,VALID,916.824,VALID,0,VALID,97.7169,VALID,0,VALID,19.3143,VALID,12,VALID,0,
2012-12-16, 03:12:04,VALID,916.819,VALID,0,VALID,97.7093,VALID,0,VALID,19.2948,VALID,28,VALID,0,
2012-12-16, 03:13:04,VALID,916.807,VALID,0,VALID,97.7093,VALID,0,VALID,19.2948,VALID,33,VALID,0,
2012-12-16, 03:14:04,VALID,916.779,VALID,0,VALID,97.7093,VALID,0,VALID,19.3143,VALID,45,VALID,0,
2012-12-16, 03:15:04,VALID,916.777,VALID,0,VALID,97.7093,VALID,0,VALID,19.3157,VALID,39,VALID,0,
2012-12-16, 03:16:04,VALID,916.777,VALID,0,VALID,97.7246,VALID,0,VALID,19.3143,VALID,13,VALID,0,
2012-12-16, 03:17:04,VALID,916.753,VALID,0,VALID,97.7017,VALID,0,VALID,19.3338,VALID,14,VALID,0,
2012-12-16, 03:18:04,VALID,916.728,VALID,0,VALID,97.7169,VALID,0,VALID,19.2962,VALID,29,VALID,0,
2012-12-16, 03:19:04,VALID,916.749,VALID,0,VALID,97.7246,VALID,0,VALID,19.3157,VALID,16,VALID,0,
2012-12-16, 03:20:04,VALID,916.703,VALID,0,VALID,97.7246,VALID,0,VALID,19.2753,VALID,9,VALID,0,
2012-12-16, 03:21:04,VALID,916.71,VALID,0,VALID,97.7169,VALID,0,VALID,19.2753,VALID,345,VALID,0,
2012-12-16, 03:22:04,VALID,916.731,VALID,0,VALID,97.7169,VALID,0,VALID,19.2558,VALID,349,VALID,0,
2012-12-16, 03:23:04,VALID,916.744,VALID,0,VALID,97.7246,VALID,0,VALID,19.2753,VALID,349,VALID,0,
2012-12-16, 03:24:04,VALID,916.729,VALID,0,VALID,97.7169,VALID,0,VALID,19.2962,VALID,349,VALID,0,
2012-12-16, 03:25:04,VALID,916.744,VALID,0,VALID,97.7093,VALID,0,VALID,19.2753,VALID,349,VALID,0,
2012-12-16, 03:26:04,VALID,916.718,VALID,0,VALID,97.7246,VALID,0,VALID,19.2948,VALID,349,VALID,0,
2012-12-16, 03:27:04,VALID,916.702,VALID,0,VALID,97.7169,VALID,0,VALID,19.3143,VALID,349,VALID,0,
2012-12-16, 03:28:04,VALID,916.73,VALID,0,VALID,97.7169,VALID,0,VALID,19.2948,VALID,349,VALID,0,
2012-12-16, 03:29:04,VALID,916.704,VALID,0,VALID,97.7093,VALID,0,VALID,19.2948,VALID,349,VALID,0,
2012-12-16, 03:30:04,VALID,916.7,VALID,0,VALID,97.6941,VALID,0,VALID,19.3338,VALID,349,VALID,0,
2012-12-16, 03:31:04,VALID,916.701,VALID,0,VALID,97.7093,VALID,0,VALID,19.3338,VALID,349,VALID,0,
2012-12-16, 03:32:04,VALID,916.734,VALID,0,VALID,97.7093,VALID,0,VALID,19.2753,VALID,349,VALID,0,
2012-12-16, 03:33:04,VALID,916.734,VALID,0,VALID,97.7093,VALID,0,VALID,19.2558,VALID,349,VALID,0,
2012-12-16, 03:34:04,VALID,916.737,VALID,0,VALID,97.7093,VALID,0,VALID,19.2572,VALID,349,VALID,0,
2012-12-16, 03:35:04,VALID,916.693,VALID,0,VALID,97.7169,VALID,0,VALID,19.2753,VALID,349,VALID,0,
2012-12-16, 03:36:04,VALID,916.728,VALID,0,VALID,97.7246,VALID,0,VALID,19.2753,VALID,349,VALID,0,
2012-12-16, 03:37:04,VALID,916.745,VALID,0,VALID,97.7322,VALID,0,VALID,19.2767,VALID,349,VALID,0,
2012-12-16, 03:38:04,VALID,916.738,VALID,0,VALID,97.7246,VALID,0,VALID,19.2363,VALID,349,VALID,0,
2012-12-16, 03:39:04,VALID,916.731,VALID,0,VALID,97.7246,VALID,0,VALID,19.2363,VALID,348,VALID,0,
2012-12-16, 03:40:04,VALID,916.696,VALID,0,VALID,97.7246,VALID,0,VALID,19.2572,VALID,348,VALID,0,
2012-12-16, 03:41:04,VALID,916.701,VALID,0,VALID,97.7246,VALID,0,VALID,19.2558,VALID,347,VALID,0,
2012-12-16, 03:42:04,VALID,916.714,VALID,0,VALID,97.7169,VALID,0,VALID,19.2377,VALID,336,VALID,0,
2012-12-16, 03:43:04,VALID,916.708,VALID,0,VALID,97.7474,VALID,0,VALID,19.1973,VALID,336,VALID,0,
2012-12-16, 03:44:04,VALID,916.71,VALID,0,VALID,97.7474,VALID,0,VALID,19.1987,VALID,336,VALID,0,
2012-12-16, 03:45:04,VALID,916.715,VALID,0,VALID,97.7246,VALID,0,VALID,19.1973,VALID,336,VALID,0,
2012-12-16, 03:46:04,VALID,916.727,VALID,0,VALID,97.7398,VALID,0,VALID,19.2182,VALID,336,VALID,0,
2012-12-16, 03:47:04,VALID,916.759,VALID,0,VALID,97.7398,VALID,0,VALID,19.1778,VALID,336,VALID,0,
2012-12-16, 03:48:04,VALID,916.779,VALID,0,VALID,97.7322,VALID,0,VALID,19.1583,VALID,336,VALID,0,
2012-12-16, 03:49:04,VALID,916.719,VALID,0,VALID,97.7322,VALID,0,VALID,19.1583,VALID,336,VALID,0,
2012-12-16, 03:50:04,VALID,916.761,VALID,0,VALID,97.7474,VALID,0,VALID,19.1388,VALID,336,VALID,0,
2012-12-16, 03:51:04,VALID,916.739,VALID,0,VALID,97.7169,VALID,0,VALID,19.1388,VALID,336,VALID,0,
2012-12-16, 03:52:04,VALID,916.725,VALID,0,VALID,97.7474,VALID,0,VALID,19.1207,VALID,336,VALID,0,
2012-12-16, 03:53:04,VALID,916.715,VALID,0,VALID,97.7474,VALID,0,VALID,19.0413,VALID,336,VALID,0,
2012-12-16, 03:54:04,VALID,916.704,VALID,0,VALID,97.7551,VALID,0,VALID,19.0413,VALID,336,VALID,0,
2012-12-16, 03:55:04,VALID,916.664,VALID,0,VALID,97.7398,VALID,0,VALID,19.0608,VALID,336,VALID,0,
2012-12-16, 03:56:04,VALID,916.659,VALID,0,VALID,97.7474,VALID,0,VALID,19.0998,VALID,336,VALID,0,
2012-12-16, 03:57:04,VALID,916.694,VALID,0,VALID,97.7246,VALID,0,VALID,19.1388,VALID,336,VALID,0,